Home > Time Zones > World Clock > Weather > Iran > Rasht > Past weeks

Flag for Iran Weather past 2 weeks in Rasht, Iran

Now
81 °F

Sunny.


Feels Like: 82 °F
Forecast: 68 / 79 °F
Wind: No wind

Location: Rasht Airport

Current Time: Sep 17, 2014 at 11:03:16 AM

Latest Report: Sep 17, 2014 at 10:30 AM


Visibility: 5 mi

Pressure: 29.86 "Hg

Humidity: 58%

Dew point: 64 °F

Location of RashtLocation

Historic Weather in Rasht — Graph

°F

Rasht temperature yesterday

Maximum temperature yesterday: 86 °F (at 2:30 PM)
Minimum temperature yesterday: 66 °F (at 6:30 AM)
Average temperature yesterday: 77 °F

Past Weeks' High & Low Weather Summary

 TemperatureHumidityPressure
High91 °F (Sep 4, 3:00 PM)100% (Sep 9, 6:30 AM)29.92 "Hg (Sep 9, 6:30 AM)
Low66 °F (Sep 7, 6:30 AM)40% (Sep 7, 2:30 PM)29.65 "Hg (Sep 5, 3:30 AM)
Average80 °F70%29.82 "Hg
* Reported Sep 2 9:30 AM — Sep 17 10:00 AM, Rasht, Weather by CustomWeather, © 2014

Note: Actual official high and low records may vary slightly from our data, if they occured in-between our weather recording intervals... More about our weather records

Advertising

Rasht weather history for previous 24 hours

 ConditionsComfort  
Time TempWeatherWind HumidityBarometerVisibility
10:00 AM
Sep 17
77 °FSunny.No wind69%29.86 "Hg4 mi
9:30 AM77 °FSunny.No wind69%29.86 "Hg4 mi
9:00 AM70 °FHaze.No wind78%29.83 "Hg3 mi
8:30 AM70 °FHaze.No wind78%29.83 "Hg3 mi
8:00 AM68 °FFog.5 mph83%29.83 "Hg3 mi
7:30 AM66 °FFog.No wind88%29.83 "Hg3 mi
7:00 AM66 °FFog.No wind88%29.83 "Hg3 mi
6:30 AM66 °FFog.No wind88%29.83 "Hg3 mi
5:30 AM68 °FPassing clouds.5 mph88%29.83 "Hg4 mi
11:30 PM
Sep 16
68 °FClear.No wind83%29.74 "Hg10 mi
10:30 PM70 °FClear.No wind78%29.74 "Hg10 mi
9:30 PM72 °FClear.No wind69%29.74 "Hg10 mi
8:30 PM73 °FSunny.5 mph69%29.71 "Hg10 mi
8:00 PM77 °FSunny.5 mph57%29.71 "Hg10 mi
7:30 PM77 °FSunny.5 mph57%29.71 "Hg10 mi
7:00 PM81 °FSunny.7 mph51%29.71 "Hg10 mi
6:30 PM81 °FSunny.7 mph51%29.71 "Hg10 mi
6:00 PM82 °FSunny.14 mph48%29.71 "Hg10 mi
5:30 PM82 °FSunny.14 mph48%29.71 "Hg10 mi
5:00 PM84 °FSunny.7 mph48%29.71 "Hg10 mi
4:30 PM84 °FSunny.7 mph48%29.71 "Hg10 mi
4:00 PM84 °FSunny.9 mph51%29.71 "Hg10 mi
3:30 PM84 °FSunny.9 mph51%29.71 "Hg10 mi
3:00 PM86 °FSunny.7 mph49%29.74 "Hg10 mi
2:30 PM86 °FSunny.7 mph49%29.74 "Hg10 mi
2:00 PM84 °FSunny.No wind43%29.74 "Hg10 mi
1:30 PM84 °FSunny.No wind43%29.74 "Hg10 mi
1:00 PM84 °FSunny.5 mph40%29.77 "Hg10 mi
12:30 PM84 °FSunny.5 mph40%29.77 "Hg10 mi
12:00 PM82 °FSunny.7 mph42%29.80 "Hg10 mi
11:30 AM82 °FSunny.7 mph42%29.80 "Hg10 mi
11:00 AM79 °FPassing clouds.No wind61%29.83 "HgN/A
Weather by CustomWeather, © 2014

See weather overviewHow to use our weather pages